STARLINK-1271 (45217 NORAD) Tracking and Keplerian Element Data

This shows tracking and keplerian element data for the satellite.

Feedback or suggestion? Click here.




ElementValue
Catalog45217
NameSTARLINK-1271
Epoch Orbit657
Epoch Day88.25001157
Epoch Year2020
RAAN72.2403
Inclination52.9991
Eccentricity0.0001556
Argument of Perigee351.4101
Mean Anonmoly201.0681
Mean Motion15.62744265
Decay Rate0.00077837
L11 45217U 20012AR 20088.25001157 .00077837 00000-0 84804-3 0 9992
L22 45217 52.9991 72.2403 0001556 351.4101 201.0681 15.62744265 6574

Live tracking and technical data element details for STARLINK-1271 (NORAD 45217). STARLINK-1271 can be tracked NOW for your location showing map with azimuth and elevation plus other details from your city location.

Track the satellite on the map from your city or location and see movement details for azimuth, elevation, latitude, longitude, range, height, and movement on the map or in text.







IsCatalogInMostPopularTable: catalog: 45217, numindb: 7
Update: records affected: 1



GetName: 45217 STARLINK-1271

Hit Count: updated at: Tue, 31 Mar 2020 12:30:09 GMT